Погода Баку

Погода Баку : погода сейчас, прогноз погоды и архив. Всё, что Вы хотите узнать о погоде Баку!

Поиск расширенной информации на нашем сайте:

Другие новости

Новости СМИ2

Главная страница сайта

Новости сайта

03.07.2017

Напоминаем, что на нашем специализированном сайте Метеоцентр.Азия вы можете получить высокодетализированные автоматические прогнозы погоды по пунктам России, СНГ и мира в авиационном формате (включающие направление и скорость ветра, видимость, явления погоды, количество и форму облачности, нижнюю и верхнюю границу облачности).


Погода Баку - сегодня

Время (UTC), дата Ветер
(°,м/с) 
Видим.   Явления Облачность Т
(°С)
Тd
(°С)
f(%) Тe
(°С)
Pmin
(гПа)
dP
(гПа)
Po
(мм)
O2
(г/м3)
Тmin Tmax R s Состояние
почвы
03 18.07.17 140 (ЮВ) 10 км    ясно 
+25.9 +15.8 54 +36  1012.5  0.5  759  275           
06 18.07.17 160 (Ю) 10 км    ясно 
+33.2 +6.4 19 +33  1012.7  0.2  760  271           
09 18.07.17 140 (ЮВ) 10 км    ясно 
+35.6 +2.7 13 +36  1012.1  -0.6  759  270           
12 18.07.17 100 (В) 10 км    ясно 
+34.9 +5.9 17 +35  1011.2  -0.9  758  269           
15 18.07.17 100 (В) 10 км    ясно 
+33.2 +8.1 21 +33  1010.7  -0.5  758  270           
18 18.07.17 тихо ()   10 км    ясно 
+26.2 +16.1 54 +37  1011.2  0.5  758  275    +36       
21 18.07.17 240 (ЮЗ) 10 км    ясно 
+23.7 +17 66 +36  1010.4  -0.8  758  277           
00 19.07.17 240 (ЮЗ) 10 км    ясно 
+21.5 +15.4 68 +31  1009.7  -0.5  757  279           
03 19.07.17 040 (СВ) 10 км    ясно 
+25.2 +15.1 54 +34  1010.2  0.5  758  276           
06 19.07.17 190 (Ю) 10 км    ясно 
+33.7 +13.5 30 +40  1010.5  0.3  758  269           
09 19.07.17 090 (В) 10 км    ясно 
+34.7 +9.5 21 +35  1009.6  -0.9  757  268           
12 19.07.17 100 (В) 10 км    ясно 
+34.5 +10.3 23 +36  1008.1  -1.5  756  268           
15 19.07.17 130 (ЮВ) 10 км    ясно 
+31.9 +13.8 33 +38  1007.3  -0.8  756  269           
18 19.07.17 тихо ()   10 км    ясно 
+26.1 +16.6 56 +38  1007.8  0.5  756  274    +36.3       
21 19.07.17 тихо ()   10 км    ясно 
+23.4 +14.9 59 +32  1006.5  -1.3  755  276           
00 20.07.17 350 (С) 10 км    ясно 
+23.7 +11.7 47 +27  1006.4  -0.1  755  277           
03 20.07.17 300 (СЗ) 10 км    ясно 
+26.9 +16.4 53 +38  1007.4  756  273           
06 20.07.17 360 (С) 10 км    ясно 
+30.8 +16.3 42 +42  1007.7  0.3  756  270           
09 20.07.17 090 (В) 10 км    ясно 
+37.3 +12 22 +41  1006  -1.7  755  265           
12 20.07.17 150 (ЮВ) 10 км    ясно 
+37.2 +8.6 18 +37  1004.7  -1.3  754  265           
15 20.07.17 040 (СВ) 10 км    ясно 
+33.2 +10.7 25 +35  1004.5  -0.2  753  268           
18 20.07.17 тихо ()   10 км    ясно 
+28.3 +16.3 48 +39  1005.6  1.1  754  271    +38.1       
21 20.07.17 тихо ()   10 км    ясно 
+23.5 +14.6 57 +31  1005.8  0.2  754  276           
00 21.07.17 280 (З) 10 км    ясно 
+23.5 +15.8 62 +33  1006.2  0.4  755  276           
03 21.07.17 тихо ()   10 км    ясно 
+23.5 +20.4 83 +43  1007.3  1.1  756  275           
Время (UTC), дата Ветер
(°,м/с) 
Видим.   Явления Облачность Т
(°С)
Тd
(°С)
f(%) Тe
(°С)
Pmin
(гПа)
dP
(гПа)
Po
(мм)
O2
(г/м3)
Тmin Tmax R s Состояние
почвы

Для получения пояснительной информации подведите курсор к названию столбца.

ПОГОДА Баку - архив

Всё, что Вы хотите узнать о погоде Баку - удобно и подробно!

Выберите нужную дату (начиная с 1 января 2015* года) и нажмите кнопку "Найти".
Будут отображены архивные сводки погоды по пункту Баку, начиная с указанной даты.


Отображать данные в формате CSV (для использования в таблицах Excel)


Внимание! Наш архив погоды предназначен исключительно для личного некоммерческого использования в познавательных целях. Если Вам необходимы официальные справки о состоянии погоды (для производственных, юридических, коммерческих и т.п. целей), обращайтесь в органы Росгидромета.

*Примечание: данная дата относится к архиву по метеостанциям СССР (Россия, СНГ, Балтия).
Архив по метеостанциям Зарубежной Европы и Азии (кроме Китая) хранится 10 дней, по другим регионам земного шара (Китай, Африка, Америка, Австралия, Океания) - 1 день.

Баку - район местоположения метеостанции


Название, широта, долгота, высота метеостанции:
Баку (Гейдар Алиев) 40.4°ш. 50.1°д. -1 м над ур. моря [Азербайджан]

Дополнительная информация

В oтличие oт бoльшинства пoгoдных сайтoв мы публикуем пoдрoбную метеoинфoрмацию в детальнoм прoфессиoнальнoм фoрмате.

Характеристики температуры и влажнoсти вoздуха измеряются на высoте 2 м в тени вдали oт зданий и деревьев.
Скoрoсть ветра измеряется на высoте 10 м (на урoвне рoста челoвека скoрoсть ветра ниже в 1.5-2 раза). Если метеoстанция нахoдится в гoрoде или в лесу, тo скoрoсть ветра занижена на 2-4 м/с пo сравнению с oткрытым местoм. Скoрoсть ветра над акватoриями крупных рек и oзёр, а также на вершинах хoлмoв на 2-5 м/с выше, чем в oбычных услoвиях.
Атмoсфернoе давление в разных тoчках местнoсти мoжет значительнo oтличаться oт давления на метеoстанции, в зависимoсти oт услoвий рельефа (при пoдъёме на 10 м давление пoнижается примернo на 1 мм рт.ст.).